Regional Weather Roundup
Issued by NWS

Home | Current Version | Previous Version | Text Only | Print | Product List | Glossary On
Versions: 1 2 3 4 5 6 7 8 9 10 11 12 13 14 15 16 17 18 19 20 21 22 23 24 25 26 27 28 29 30 31 32 33 34 35 36 37 38 39 40 41 42 43 44 45 46 47 48 49 50
000
ASUS43 KBIS 210102
RWRND

NORTH DAKOTA REGIONAL WEATHER ROUNDUP
NATIONAL WEATHER SERVICE BISMARCK ND
800 PM CDT WED SEP 20 2017

NOTE: "FAIR" INDICATES FEW OR NO CLOUDS BELOW 12,000 FEET WITH NO
SIGNIFICANT WEATHER AND/OR OBSTRUCTIONS TO VISIBILITY.


NDZ001>003-009>011-017-210200-
NORTHWEST NORTH DAKOTA

CITY           SKY/WX    TMP DP  RH WIND       PRES   REMARKS
WILLISTON      CLEAR     58  38  47 SE6       29.60R
MINOT          CLEAR     62  33  33 S7        29.64R
MINOT AFB      CLEAR     59  35  40 S8        29.62R
$$

NDZ018>021-031>035-040>046-210200-
SOUTHWEST NORTH DAKOTA

CITY           SKY/WX    TMP DP  RH WIND       PRES   REMARKS
BISMARCK       CLEAR     55  40  56 S8        29.72S
DICKINSON      CLEAR     54  32  43 S7        29.67R
GARRISON         N/A     57  39  51 SW5       29.67R
HETTINGER ARPT CLEAR     58  31  35 S5        29.72R
$$

NDZ004>008-012>016-024-026-027-054-210200-
NORTHEAST NORTH DAKOTA

CITY           SKY/WX    TMP DP  RH WIND       PRES   REMARKS
GRAND FORKS    PTCLDY    58  47  66 S8        29.76R
GRND FRKS AFB  CLEAR     56  41  57 S8        29.76R
DEVILS LAKE    CLEAR     60  42  51 S10       29.73R
$$

NDZ022-023-025-028>030-036>039-047>053-210200-
SOUTHEAST NORTH DAKOTA

CITY           SKY/WX    TMP DP  RH WIND       PRES   REMARKS
FARGO          CLEAR     63  43  48 S9        29.81R
JAMESTOWN      CLEAR     55  43  63 S7        29.77R
$$





USA.gov is the U.S. government's official web portal to all federal, state and local government web resources and services.